Weather History for Madison, WI

Change the Weather History Date:

Monday, January 7, 2013

  Actual Average Record
Temperature  
Mean Temperature 25 °F 19 °F  
Max Temperature 36 °F 26 °F 50 °F (2008)
Min Temperature 14 °F 11 °F -29 °F (1887)
Degree Days  
Heating Degree Days 40 46  
Month to date heating degree days 319 322  
Since 1 July heating degree days 2914 3201  
Cooling Degree Days 0 0  
Month to date cooling degree days 0 0  
Year to date cooling degree days 0 0  
Moisture  
Dew Point 19 °F    
Average Humidity 72    
Maximum Humidity 88    
Minimum Humidity 56    
Precipitation  
Precipitation 0.00 in 0.04 in 0.68 in (1913)
Month to date precipitation T 0.29  
Year to date precipitation T 0.29  
Snow  
Snow 0.00 in 0.40 in 7.00 in (1913)
Month to date snowfall T 2.8  
Since 1 July snowfall 23.5 20.4  
Snow Depth 9.00 in    
Sea Level Pressure  
Sea Level Pressure 30.13 in    
Wind  
Wind Speed 8 mph (SSW)    
Max Wind Speed 20 mph    
Max Gust Speed 29 mph    
Visibility 10 miles    
Events      
T = Trace of Precipitation, MM = Missing Value Source: NWS Daily Summary

Daily Weather History Graph

Daily Weather History Graph

Search for Another Location

Airport:

Trip Planner

Search our weather history database for the weather conditions in past years. The results will help you decide how hot, cold, wet, or windy it might be!

Date:

Astronomy

Jan. 07, 2013 Rise Set
Actual Time 7:28 AM CST 4:39 PM CST
Civil Twilight 6:56 AM CST 5:11 PM CST
Nautical Twilight 6:21 AM CST 5:46 PM CST
Astronomical Twilight 5:46 AM CST 6:21 PM CST
Moon 2:50 AM CST (1/7) 12:51 PM CST (1/7)
Length of Visible Light 10h 14m
Length of Day
9h 10m
Waning Crescent, 22% of the Moon is Illuminated
Jan 7
Waning Crescent
Jan 11
New
Jan 18
First Quarter
Jan 26
Full
Feb 3
Last Quarter

Hourly Weather History & Observations

Time (CST) Temp. Windchill Dew Point Humidity Pressure Visibility Wind Dir Wind Speed Gust Speed Precip Events Conditions
12:53 AM 15.1 °F 6.4 °F 10.0 °F 80% 30.29 in 9.0 mi South 5.8 mph - N/A   Clear
1:53 AM 16.0 °F 5.3 °F 10.9 °F 81% 30.28 in 10.0 mi South 8.1 mph - N/A   Clear
2:53 AM 14.0 °F 3.9 °F 10.0 °F 84% 30.27 in 10.0 mi South 6.9 mph - N/A   Clear
3:53 AM 17.1 °F 11.7 °F 10.9 °F 77% 30.26 in 10.0 mi Variable 3.5 mph - N/A   Clear
4:53 AM 17.6 °F 5.7 °F 10.4 °F 73% 30.19 in 10.0 mi South 10.4 mph - N/A   Clear
5:53 AM 17.1 °F 5.0 °F 12.0 °F 81% 30.21 in 10.0 mi South 10.4 mph - N/A   Clear
6:53 AM 21.0 °F 8.1 °F 12.9 °F 71% 30.19 in 10.0 mi SSW 13.8 mph - N/A   Clear
7:53 AM 21.0 °F 9.9 °F 14.0 °F 74% 30.19 in 10.0 mi SSW 10.4 mph 18.4 mph N/A   Clear
8:53 AM 23.0 °F 12.4 °F 16.0 °F 74% 30.19 in 10.0 mi South 10.4 mph - N/A   Clear
9:53 AM 27.0 °F 18.7 °F 17.1 °F 66% 30.18 in 10.0 mi SSW 8.1 mph - N/A   Clear
10:53 AM 30.0 °F 20.0 °F 18.0 °F 61% 30.14 in 10.0 mi SSW 12.7 mph 23.0 mph N/A   Clear
11:53 AM 32.0 °F 20.5 °F 19.0 °F 59% 30.09 in 10.0 mi South 18.4 mph 26.5 mph N/A   Clear
12:53 PM 33.8 °F 25.8 °F 21.2 °F 60% 30.04 in 10.0 mi SSW 10.4 mph 18.4 mph N/A   Clear
1:53 PM 35.1 °F 26.9 °F 21.9 °F 59% 30.06 in 10.0 mi SSW 11.5 mph 19.6 mph N/A   Clear
2:53 PM 36.0 °F 28.0 °F 23.0 °F 59% 30.06 in 10.0 mi SSW 11.5 mph 20.7 mph N/A   Clear
3:53 PM 35.1 °F 30.1 °F 24.1 °F 64% 30.06 in 10.0 mi SSW 5.8 mph - N/A   Clear
4:53 PM 35.6 °F 30.7 °F 23.0 °F 60% 30.03 in 10.0 mi SSW 5.8 mph - N/A   Clear
5:53 PM 34.0 °F 31.0 °F 24.1 °F 67% 30.07 in 10.0 mi SSW 3.5 mph - N/A   Clear
6:53 PM 32.0 °F 25.6 °F 24.1 °F 73% 30.07 in 10.0 mi South 6.9 mph - N/A   Clear
7:53 PM 32.0 °F 27.5 °F 24.1 °F 73% 30.06 in 10.0 mi SSW 4.6 mph - N/A   Clear
8:53 PM 32.0 °F 27.5 °F 24.1 °F 73% 30.06 in 10.0 mi SSW 4.6 mph - N/A   Clear
9:53 PM 32.0 °F 27.5 °F 24.1 °F 73% 30.07 in 10.0 mi Variable 4.6 mph - N/A   Clear
10:53 PM 32.0 °F 27.5 °F 24.1 °F 73% 30.06 in 10.0 mi Variable 4.6 mph - N/A   Clear
11:53 PM 30.9 °F 27.5 °F 24.1 °F 76% 30.06 in 10.0 mi SSW 3.5 mph - N/A   Clear